GOMX4-B (43196 NORAD) Tracking and Keplerian Element Data

This shows tracking and keplerian element data for the satellite.

Feedback or suggestion? Click here.




ElementValue
Catalog43196
NameGOMX4-B
Epoch Orbit4805
Epoch Day348.93606483
Epoch Year2018
RAAN114.444
Inclination97.3675
Eccentricity0.0017874
Argument of Perigee240.141
Mean Anonmoly119.805
Mean Motion15.23774952
Decay Rate-7E-07
L11 43196U 18015E 18348.93606483 -.00000070 00000-0 60618-7 0 9997
L22 43196 97.3675 114.4440 0017874 240.1410 119.8050 15.23774952 48055

Live tracking and technical data element details for GOMX4-B (NORAD 43196). GOMX4-B can be tracked NOW for your location showing map with azimuth and elevation plus other details from your city location.

Track the satellite on the map from your city or location and see movement details for azimuth, elevation, latitude, longitude, range, height, and movement on the map or in text.







IsCatalogInMostPopularTable: catalog: 43196, numindb: 125
Update: records affected: 1



GetName: 43196 GOMX4-B

Hit Count: updated at: Sun, 16 Dec 2018 10:27:16 GMT